This is the latest recevied weather packets stored in our database for station/object W4MLN-3. If no packets are shown the sender has not sent any weather packets the latest 10 day(s).
| Time | Temp. | Humidity | Pressure | Rain* | Wind** | Luminosity | Snow |
|---|---|---|---|---|---|---|---|
| 1787867403 | 25° C | 74% | 1017.3 hPa | 0 mm | - | - | - |
| 1787867103 | 25° C | 74% | 1017.2 hPa | 0 mm | - | - | - |
| 1787866804 | 25° C | 73% | 1017.3 hPa | 0 mm | - | - | - |
| 1787866504 | 25° C | 72% | 1017.3 hPa | 0 mm | - | - | - |
| 1787866203 | 25.56° C | 71% | 1017.2 hPa | 0 mm | - | - | - |
| 1787865903 | 25.56° C | 70% | 1017.2 hPa | 0 mm | - | - | - |
| 1787865603 | 25.56° C | 73% | 1017.3 hPa | 0 mm | - | - | - |
| 1787865303 | 25° C | 72% | 1017.3 hPa | 0 mm | - | - | - |
| 1787865003 | 25° C | 72% | 1017.3 hPa | 0 mm | - | - | - |
| 1787864703 | 25.56° C | 72% | 1017.3 hPa | 0 mm | - | - | - |
| 1787864403 | 25.56° C | 71% | 1017.4 hPa | 0 mm | - | - | - |
| 1787864103 | 25.56° C | 71% | 1017.5 hPa | 0 mm | - | - | - |
| 1787863803 | 25° C | 74% | 1017.5 hPa | 0 mm | - | - | - |
| 1787863503 | 25° C | 72% | 1017.6 hPa | 0 mm | - | - | - |
| 1787863203 | 24.44° C | 74% | 1017.6 hPa | 0 mm | - | - | - |
| 1787862903 | 24.44° C | 73% | 1017.8 hPa | 0 mm | - | - | - |
| 1787862603 | 25° C | 72% | 1017.7 hPa | 0 mm | - | - | - |
| 1787862325 | 25° C | 72% | 1017.9 hPa | 0 mm | - | - | - |
| 1787862003 | 25° C | 73% | 1017.9 hPa | 0 mm | - | - | - |
| 1787861724 | 25.56° C | 73% | 1017.9 hPa | 0 mm | - | - | - |
| 1787861403 | 25.56° C | 71% | 1017.9 hPa | 0 mm | - | - | - |
| 1787861124 | 26.11° C | 71% | 1017.9 hPa | 0 mm | - | - | - |
| 1787860804 | 26.11° C | 70% | 1018 hPa | 0 mm | - | - | - |
| 1787860503 | 26.11° C | 70% | 1018 hPa | 0 mm | - | - | - |
| 1787860203 | 26.67° C | 69% | 1017.9 hPa | 0 mm | - | - | - |
* Rain latest hour (hover to see other rain measurements)
** Current wind speed in m/s (hover to see current wind gust speed)